Location: Bakov nad Jizerou
(50.4784°N, 14.9394°E)
Time: 22:50:50
(UTC+00:00)

KORONAS-FOTON - Pass Details

Date: 16 June 2021
Orbit: 505 x 530 km, 82.4° (Epoch: 23 July)

Event Time Altitude Azimuth Distance (km) Brightness Sun altitude
Exits shadow 20:01:33 - 168° (SSE) 2,175 6.4 -6.2°
Reaches altitude 10° 20:02:39 10° 164° (SSE) 1,734 5.9 -6.3°
Maximum altitude 20:06:14 41° 94° (E) 756 4.3 -6.7°
Drops below altitude 10° 20:09:49 10° 23° (NNE) 1,738 6.9 -7.0°
Sets 20:12:01 0° 17° (NNE) 2,626 7.9 -7.2°
